Location: Harmony
(28.2000°N, 81.1500°W)
Time: 17:03:24
(UTC-05:00)

Cosmos 1025 Rocket - Pass Details

Date: 18 December 2017
Orbit: 595 x 618 km, 82.5° (Epoch: 23 January)

Event Time Altitude Azimuth Distance (km) Brightness Sun altitude
Rises 18:34:22 0° 193° (SSW) 2,847 6.9 -13.5°
Reaches altitude 10° 18:36:37 10° 198° (SSW) 1,943 6.1 -13.9°
Maximum altitude 18:40:50 57° 277° (W) 709 3.7 -14.8°
Drops below altitude 10° 18:45:03 10° 356° (N) 1,940 5.5 -15.7°
Sets 18:47:18 0° 1° (N) 2,842 6.3 -16.2°
